Regional Weather Roundup
Issued by NWS

Home | Current Version | Previous Version | Graphics & Text | Print | Product List | Glossary On
Versions: 1 2 3 4 5 6 7 8 9 10 11 12 13 14 15 16 17 18 19 20 21 22 23 24 25 26 27 28 29 30 31 32 33 34 35 36 37 38 39 40 41 42 43 44 45 46 47 48 49 50
000
ASUS45 KPSR 251310
RWRAZ

ARIZONA REGIONAL HOURLY WEATHER ROUNDUP
NATIONAL WEATHER SERVICE PHOENIX AZ
600 AM MST SUN JAN 25 2015

NOTE: FAIR INDICATES FEW OR NO CLOUDS BELOW 12,000 FEET WITH NO
SIGNIFICANT WEATHER AND/OR OBSTRUCTIONS TO VISIBILITY.

AZZ001>003-036-251400-
NORTHWEST ARIZONA

CITY           SKY/WX    TMP DP  RH WIND       PRES   REMARKS
BULLHEAD CITY  CLEAR     63  32  31 N29G37    30.13S
KINGMAN        CLEAR     41  20  43 E7        30.23S
$$

AZZ004>008-015-016-018-251400-
NORTH CENTRAL ARIZONA

CITY           SKY/WX    TMP DP  RH WIND       PRES   REMARKS
GRAND CANYON   PTCLDY    33  19  56 N3        30.32S
PRESCOTT       PTCLDY    29  16  58 S3        30.25R
FLAGSTAFF      CLEAR     40  20  44 E12       30.29R WCI  33
PAYSON         CLEAR     43  14  31 CALM      30.23R
$$

AZZ009>014-017-251400-
NORTHEAST ARIZONA

CITY           SKY/WX    TMP DP  RH WIND       PRES   REMARKS
WINSLOW        CLOUDY    22  18  85 CALM      30.31S
SAINT JOHNS    PTCLDY    23  18  81 N3        30.29R
WINDOW ROCK    CLEAR     24  17  74 CALM      30.28S
SHOW LOW       PTCLDY    19  14  79 NE3       30.31R
$$

AZZ023-251400-
GREATER PHOENIX AREA

CITY           SKY/WX    TMP DP  RH WIND       PRES   REMARKS
PHOENIX        CLEAR     51  25  36 CALM      30.07S
BUCKEYE          N/A     43  18  36 N8        30.09R
LUKE AFB       NOT AVBL
DEER VALLEY    CLEAR     49  19  30 CALM      30.07F
SCOTTSDALE     CLEAR     43  26  51 CALM      30.08F
MESA-FALCON    CLEAR     54  19  26 NE9       30.08
MESA-GATEWAY   PTCLDY    37  25  60 E6        30.10S WCI  33
CHANDLER       CLEAR     41  28  60 CALM      30.09
$$

AZZ027-028-251400-
SOUTHWEST MARICOPA COUNTY AND PINAL COUNTY

CITY           SKY/WX    TMP DP  RH WIND       PRES   REMARKS
CASA GRANDE    MOCLDY    48  16  27 N6        30.09S
GILA BEND      FAIR      46  15  29 NE3       30.06R
$$

AZZ503-504-507>509-251400-
SOUTHEAST ARIZONA

CITY           SKY/WX    TMP DP  RH WIND       PRES   REMARKS
TUCSON         CLOUDY    52  15  23 E5        30.11S
DAVIS-MONTHAN  MOCLDY    52  10  18 SE17      30.09R
RYAN FIELD       N/A     43  21  42 CALM      30.10
NOGALES        CLOUDY    46  16  30 NE7       30.12F
SIERRA VISTA   CLOUDY    42  16  34 SE6       30.16S
DOUGLAS        CLOUDY    33  16  49 CALM      30.17S
SAFFORD        MOCLDY    38  18  44 SE7       30.19R WCI  33
$$

AZZ020-021-025-026-031-251400-
SOUTHWEST ARIZONA

CITY           SKY/WX    TMP DP  RH WIND       PRES   REMARKS
YUMA           MOCLDY    52  24  33 NE5       30.05S
$$

CAZ031-033-041-043-047-048-061-251400-
SOUTHERN CALIFORNIA

CITY           SKY/WX    TMP DP  RH WIND       PRES   REMARKS
DOWNTOWN L.A.  CLEAR     51  35  54 CALM      30.02R
L.A. AIRPORT   CLEAR     52  34  50 CALM      30.02S
SAN DIEGO      CLOUDY    55  37  50 CALM      30.01S
BURBANK        CLEAR     50  26  39 N6        30.03R
ONTARIO        CLEAR     73  15  11 NE12G25   30.02R
RIVERSIDE      CLEAR     54  24  31 NE6       30.07R
PALM SPRINGS   CLEAR     61  20  20 SW6       30.10S
EL CENTRO NAS  CLEAR     44  19  36 W9        30.05S
IMPERIAL       FAIR      45  23  42 W6        30.05S
BLYTHE         CLEAR     57  26  30 N10       30.08F
NEEDLES        CLEAR     60  31  33 N9        30.14R
$$

NVZ020-UTZ003-251400-
SOUTHERN NEVADA-UTAH

CITY           SKY/WX    TMP DP  RH WIND       PRES   REMARKS
LAS VEGAS      CLEAR     47  23  38 S10       30.22S
SALT LAKE CITY CLOUDY    34  29  82 NW3       30.46R
$$

NMZ009-TXZ055-251400-
NEW MEXICO-WEST TEXAS

CITY           SKY/WX    TMP DP  RH WIND       PRES   REMARKS
ALBUQUERQUE    PTCLDY    28  19  69 N6        30.27R WCI  22
EL PASO        PTCLDY    31  25  78 NE5       30.19F WCI  26
$$


........................KEY........................
SKY/WX - SKY CONDITION/WEATHER
TMP    - TEMPERATURE IN FAHRENHEIT
DP     - DEW POINT IN FAHRENHEIT
RH     - RELATIVE HUMIDITY IN PERCENT
WIND   - DIRECTION AND SPEED IN MILES PER HOUR (MPH)
VRB    - VARIABLE WIND DIRECTION
PRES   - MEAN SEA LEVEL PRESSURE IN INCHES OF MERCURY
         F - FALLING PRESSURE   R - RISING PRESSURE
         S - STEADY PRESSURE
VSB    - VISIBILITY IN MILES
HX     - HEAT INDEX IN FAHRENHEIT
WCI    - WIND CHILL INDEX IN FAHRENHEIT
TC     - TEMPERATURE IN CELSIUS WHICH IS ALSO KNOWN AS
         TEMPERATURE IN CENTIGRADE
AFB    - AIR FORCE BASE
         LUKE AFB IS LUKE AIR FORCE BASE
         DAVIS-MONTHAN IS DAVIS-MONTHAN AIR FORCE BASE
NAS    - NAVAL AIR STATION
         EL CENTRO NAS IS EL CENTRO NAVAL AIR STATION
N/A    - NOT AVAILABLE



USA.gov is the U.S. government's official web portal to all federal, state and local government web resources and services.